datetime,flow
1990-10-01,503.0
1990-10-02,472.0
1990-10-03,410.0
1990-10-04,385.0
1990-10-05,340.0
1990-10-06,293.0
1990-10-07,303.0
1990-10-08,313.0
1990-10-09,323.0
1990-10-10,337.0
1990-10-11,287.0
1990-10-12,260.0
1990-10-13,262.0
1990-10-14,262.0
1990-10-15,262.0
1990-10-16,263.0
1990-10-17,262.0
1990-10-18,262.0
1990-10-19,262.0
1990-10-20,261.0
1990-10-21,260.0
1990-10-22,260.0
1990-10-23,260.0
1990-10-24,259.0
1990-10-25,259.0
1990-10-26,258.0
1990-10-27,258.0
1990-10-28,232.0
1990-10-29,0.0
1990-10-30,0.0
1990-10-31,0.0
1990-11-01,0.0
1990-11-02,0.0
1990-11-03,0.0
1990-11-04,0.0
1990-11-05,0.0
1990-11-06,0.0
1990-11-07,0.0
1990-11-08,0.0
1990-11-09,0.0
1990-11-10,0.0
1990-11-11,0.0
1990-11-12,0.0
1990-11-13,0.0
1990-11-14,0.0
1990-11-15,0.0
1990-11-16,0.0
1990-11-17,0.0
1990-11-18,0.0
1990-11-19,0.0
1990-11-20,0.0
1990-11-21,0.0
1990-11-22,0.0
1990-11-23,0.0
1990-11-24,0.0
1990-11-25,0.0
1990-11-26,0.0
1990-11-27,0.0
1990-11-28,0.0
1990-11-29,0.0
1990-11-30,0.0
1990-12-01,0.0
1990-12-02,0.0
1990-12-03,0.0
1990-12-04,0.0
1990-12-05,0.0
1990-12-06,0.0
1990-12-07,0.0
1990-12-08,0.0
1990-12-09,0.0
1990-12-10,0.0
1990-12-11,0.0
1990-12-12,0.0
1990-12-13,0.0
1990-12-14,0.0
1990-12-15,0.0
1990-12-16,0.0
1990-12-17,0.0
1990-12-18,0.0
1990-12-19,0.0
1990-12-20,0.0
1990-12-21,0.0
1990-12-22,0.0
1990-12-23,0.0
1990-12-24,0.0
1990-12-25,0.0
1990-12-26,0.0
1990-12-27,0.0
1990-12-28,0.0
1990-12-29,0.0
1990-12-30,0.0
1990-12-31,0.0
1991-01-01,0.0
1991-01-02,0.0
1991-01-03,0.0
1991-01-04,0.0
1991-01-05,0.0
1991-01-06,0.0
1991-01-07,0.0
1991-01-08,0.0
1991-01-09,0.0
1991-01-10,0.0
1991-01-11,0.0
1991-01-12,0.0
1991-01-13,0.0
1991-01-14,0.0
1991-01-15,0.0
1991-01-16,0.0
1991-01-17,0.0
1991-01-18,0.0
1991-01-19,0.0
1991-01-20,0.0
1991-01-21,0.0
1991-01-22,0.0
1991-01-23,0.0
1991-01-24,0.0
1991-01-25,0.0
1991-01-26,0.0
1991-01-27,0.0
1991-01-28,0.0
1991-01-29,0.0
1991-01-30,0.0
1991-01-31,0.0
1991-02-01,0.0
1991-02-02,0.0
1991-02-03,0.0
1991-02-04,0.0
1991-02-05,0.0
1991-02-06,0.0
1991-02-07,0.0
1991-02-08,0.0
1991-02-09,0.0
1991-02-10,0.0
1991-02-11,0.0
1991-02-12,0.0
1991-02-13,0.0
1991-02-14,0.0
1991-02-15,0.0
1991-02-16,0.0
1991-02-17,0.0
1991-02-18,0.0
1991-02-19,0.0
1991-02-20,0.0
1991-02-21,0.0
1991-02-22,0.0
1991-02-23,0.0
1991-02-24,0.0
1991-02-25,0.0
1991-02-26,0.0
1991-02-27,0.0
1991-02-28,0.0
1991-03-01,0.0
1991-03-02,0.0
1991-03-03,0.0
1991-03-04,0.0
1991-03-05,0.0
1991-03-06,0.0
1991-03-07,0.0
1991-03-08,0.0
1991-03-09,0.0
1991-03-10,0.0
1991-03-11,0.0
1991-03-12,0.0
1991-03-13,0.0
1991-03-14,0.0
1991-03-15,0.0
1991-03-16,0.0
1991-03-17,0.0
1991-03-18,0.0
1991-03-19,0.0
1991-03-20,0.0
1991-03-21,0.0
1991-03-22,0.0
1991-03-23,0.0
1991-03-24,0.0
1991-03-25,21.0
1991-03-26,172.0
1991-03-27,215.0
1991-03-28,233.0
1991-03-29,230.0
1991-03-30,230.0
1991-03-31,230.0
1991-04-01,288.0
1991-04-02,310.0
1991-04-03,275.0
1991-04-04,275.0
1991-04-05,275.0
1991-04-06,277.0
1991-04-07,278.0
1991-04-08,276.0
1991-04-09,228.0
1991-04-10,197.0
1991-04-11,144.0
1991-04-12,144.0
1991-04-13,140.0
1991-04-14,140.0
1991-04-15,140.0
1991-04-16,52.0
1991-04-17,130.0
1991-04-18,274.0
1991-04-19,314.0
1991-04-20,315.0
1991-04-21,314.0
1991-04-22,314.0
1991-04-23,381.0
1991-04-24,423.0
1991-04-25,499.0
1991-04-26,543.0
1991-04-27,543.0
1991-04-28,540.0
1991-04-29,539.0
1991-04-30,538.0
1991-05-01,534.0
1991-05-02,520.0
1991-05-03,745.0
1991-05-04,856.0
1991-05-05,854.0
1991-05-06,814.0
1991-05-07,754.0
1991-05-08,755.0
1991-05-09,646.0
1991-05-10,590.0
1991-05-11,589.0
1991-05-12,589.0
1991-05-13,586.0
1991-05-14,592.0
1991-05-15,602.0
1991-05-16,572.0
1991-05-17,554.0
1991-05-18,553.0
1991-05-19,553.0
1991-05-20,552.0
1991-05-21,550.0
1991-05-22,551.0
1991-05-23,552.0
1991-05-24,550.0
1991-05-25,609.0
1991-05-26,635.0
1991-05-27,636.0
1991-05-28,634.0
1991-05-29,635.0
1991-05-30,634.0
1991-05-31,773.0
1991-06-01,829.0
1991-06-02,830.0
1991-06-03,824.0
1991-06-04,845.0
1991-06-05,857.0
1991-06-06,863.0
1991-06-07,841.0
1991-06-08,826.0
1991-06-09,827.0
1991-06-10,827.0
1991-06-11,828.0
1991-06-12,830.0
1991-06-13,833.0
1991-06-14,833.0
1991-06-15,834.0
1991-06-16,832.0
1991-06-17,828.0
1991-06-18,825.0
1991-06-19,822.0
1991-06-20,821.0
1991-06-21,833.0
1991-06-22,824.0
1991-06-23,820.0
1991-06-24,822.0
1991-06-25,824.0
1991-06-26,825.0
1991-06-27,823.0
1991-06-28,820.0
1991-06-29,815.0
1991-06-30,816.0
1991-07-01,813.0
1991-07-02,814.0
1991-07-03,822.0
1991-07-04,822.0
1991-07-05,822.0
1991-07-06,819.0
1991-07-07,820.0
1991-07-08,821.0
1991-07-09,823.0
1991-07-10,819.0
1991-07-11,815.0
1991-07-12,811.0
1991-07-13,808.0
1991-07-14,809.0
1991-07-15,807.0
1991-07-16,809.0
1991-07-17,811.0
1991-07-18,810.0
1991-07-19,809.0
1991-07-20,809.0
1991-07-21,807.0
1991-07-22,807.0
1991-07-23,806.0
1991-07-24,805.0
1991-07-25,805.0
1991-07-26,805.0
1991-07-27,806.0
1991-07-28,805.0
1991-07-29,805.0
1991-07-30,803.0
1991-07-31,802.0
1991-08-01,801.0
1991-08-02,801.0
1991-08-03,798.0
1991-08-04,797.0
1991-08-05,797.0
1991-08-06,798.0
1991-08-07,797.0
1991-08-08,796.0
1991-08-09,796.0
1991-08-10,795.0
1991-08-11,794.0
1991-08-12,793.0
1991-08-13,794.0
1991-08-14,791.0
1991-08-15,791.0
1991-08-16,789.0
1991-08-17,789.0
1991-08-18,786.0
1991-08-19,785.0
1991-08-20,784.0
1991-08-21,781.0
1991-08-22,781.0
1991-08-23,779.0
1991-08-24,782.0
1991-08-25,779.0
1991-08-26,779.0
1991-08-27,778.0
1991-08-28,778.0
1991-08-29,777.0
1991-08-30,776.0
1991-08-31,774.0
1991-09-01,775.0
1991-09-02,775.0
1991-09-03,775.0
1991-09-04,777.0
1991-09-05,779.0
1991-09-06,781.0
1991-09-07,783.0
1991-09-08,763.0
1991-09-09,760.0
1991-09-10,751.0
1991-09-11,663.0
1991-09-12,596.0
1991-09-13,507.0
1991-09-14,466.0
1991-09-15,467.0
1991-09-16,471.0
1991-09-17,473.0
1991-09-18,439.0
1991-09-19,416.0
1991-09-20,419.0
1991-09-21,419.0
1991-09-22,409.0
1991-09-23,412.0
1991-09-24,532.0
1991-09-25,648.0
1991-09-26,661.0
1991-09-27,658.0
1991-09-28,660.0
1991-09-29,661.0
1991-09-30,657.0
1991-10-01,658.0
1991-10-02,657.0
1991-10-03,654.0
1991-10-04,647.0
1991-10-05,647.0
1991-10-06,667.0
1991-10-07,656.0
1991-10-08,425.0
1991-10-09,426.0
1991-10-10,427.0
1991-10-11,429.0
1991-10-12,442.0
1991-10-13,439.0
1991-10-14,439.0
1991-10-15,449.0
1991-10-16,462.0
1991-10-17,456.0
1991-10-18,451.0
1991-10-19,457.0
1991-10-20,454.0
1991-10-21,502.0
1991-10-22,564.0
1991-10-23,565.0
1991-10-24,565.0
1991-10-25,573.0
1991-10-26,593.0
1991-10-27,584.0
1991-10-28,242.0
1991-10-29,0.0
1991-10-30,0.0
1991-10-31,0.0
1991-11-01,0.0
1991-11-02,0.0
1991-11-03,0.0
1991-11-04,0.0
1991-11-05,0.0
1991-11-06,0.0
1991-11-07,0.0
1991-11-08,0.0
1991-11-09,0.0
1991-11-10,0.0
1991-11-11,0.0
1991-11-12,0.0
1991-11-13,0.0
1991-11-14,0.0
1991-11-15,0.0
1991-11-16,0.0
1991-11-17,0.0
1991-11-18,0.0
1991-11-19,0.0
1991-11-20,0.0
1991-11-21,0.0
1991-11-22,0.0
1991-11-23,33.0
1991-11-24,66.0
1991-11-25,44.0
1991-11-26,0.0
1991-11-27,0.0
1991-11-28,0.0
1991-11-29,0.0
1991-11-30,0.0
1991-12-01,0.0
1991-12-02,0.0
1991-12-03,0.0
1991-12-04,0.0
1991-12-05,0.0
1991-12-06,0.0
1991-12-07,0.0
1991-12-08,0.0
1991-12-09,0.0
1991-12-10,0.0
1991-12-11,0.0
1991-12-12,0.0
1991-12-13,0.0
1991-12-14,0.0
1991-12-15,0.0
1991-12-16,0.0
1991-12-17,0.0
1991-12-18,0.0
1991-12-19,0.0
1991-12-20,0.0
1991-12-21,0.0
1991-12-22,0.0
1991-12-23,0.0
1991-12-24,0.0
1991-12-25,0.0
1991-12-26,0.0
1991-12-27,0.0
1991-12-28,0.0
1991-12-29,50.0
1991-12-30,77.0
1991-12-31,36.0
1992-01-01,0.0
1992-01-02,0.0
1992-01-03,0.0
1992-01-04,0.0
1992-01-05,0.0
1992-01-06,0.0
1992-01-07,0.0
1992-01-08,0.0
1992-01-09,0.0
1992-01-10,0.0
1992-01-11,0.0
1992-01-12,0.0
1992-01-13,0.0
1992-01-14,0.0
1992-01-15,0.0
1992-01-16,0.0
1992-01-17,0.0
1992-01-18,0.0
1992-01-19,0.0
1992-01-20,0.0
1992-01-21,0.0
1992-01-22,0.0
1992-01-23,0.0
1992-01-24,0.0
1992-01-25,0.0
1992-01-26,0.0
1992-01-27,0.0
1992-01-28,0.0
1992-01-29,0.0
1992-01-30,0.0
1992-01-31,0.0
1992-02-01,0.0
1992-02-02,0.0
1992-02-03,0.0
1992-02-04,0.0
1992-02-05,0.0
1992-02-06,0.0
1992-02-07,0.0
1992-02-08,0.0
1992-02-09,0.0
1992-02-10,0.0
1992-02-11,0.0
1992-02-12,0.0
1992-02-13,0.0
1992-02-14,0.0
1992-02-15,0.0
1992-02-16,0.0
1992-02-17,0.0
1992-02-18,0.0
1992-02-19,47.0
1992-02-20,0.0
1992-02-21,0.0
1992-02-22,0.0
1992-02-23,0.0
1992-02-24,0.0
1992-02-25,0.0
1992-02-26,0.0
1992-02-27,0.0
1992-02-28,0.0
1992-02-29,0.0
1992-03-01,0.0
1992-03-02,0.0
1992-03-03,0.0
1992-03-04,40.0
1992-03-05,51.0
1992-03-06,0.0
1992-03-07,0.0
1992-03-08,0.0
1992-03-09,0.0
1992-03-10,0.0
1992-03-11,0.0
1992-03-12,0.0
1992-03-13,0.0
1992-03-14,0.0
1992-03-15,0.0
1992-03-16,0.0
1992-03-17,0.0
1992-03-18,0.0
1992-03-19,0.0
1992-03-20,0.0
1992-03-21,0.0
1992-03-22,0.0
1992-03-23,89.0
1992-03-24,152.0
1992-03-25,152.0
1992-03-26,152.0
1992-03-27,215.0
1992-03-28,266.0
1992-03-29,265.0
1992-03-30,266.0
1992-03-31,266.0
1992-04-01,266.0
1992-04-02,267.0
1992-04-03,266.0
1992-04-04,266.0
1992-04-05,266.0
1992-04-06,267.0
1992-04-07,266.0
1992-04-08,266.0
1992-04-09,256.0
1992-04-10,250.0
1992-04-11,251.0
1992-04-12,251.0
1992-04-13,252.0
1992-04-14,246.0
1992-04-15,244.0
1992-04-16,243.0
1992-04-17,245.0
1992-04-18,245.0
1992-04-19,247.0
1992-04-20,250.0
1992-04-21,251.0
1992-04-22,253.0
1992-04-23,307.0
1992-04-24,370.0
1992-04-25,439.0
1992-04-26,439.0
1992-04-27,466.0
1992-04-28,525.0
1992-04-29,586.0
1992-04-30,618.0
1992-05-01,679.0
1992-05-02,714.0
1992-05-03,712.0
1992-05-04,712.0
1992-05-05,704.0
1992-05-06,729.0
1992-05-07,747.0
1992-05-08,754.0
1992-05-09,759.0
1992-05-10,759.0
1992-05-11,761.0
1992-05-12,763.0
1992-05-13,775.0
1992-05-14,789.0
1992-05-15,790.0
1992-05-16,789.0
1992-05-17,784.0
1992-05-18,784.0
1992-05-19,781.0
1992-05-20,785.0
1992-05-21,786.0
1992-05-22,787.0
1992-05-23,785.0
1992-05-24,787.0
1992-05-25,797.0
1992-05-26,798.0
1992-05-27,797.0
1992-05-28,797.0
1992-05-29,795.0
1992-05-30,793.0
1992-05-31,791.0
1992-06-01,789.0
1992-06-02,788.0
1992-06-03,787.0
1992-06-04,785.0
1992-06-05,783.0
1992-06-06,782.0
1992-06-07,781.0
1992-06-08,780.0
1992-06-09,780.0
1992-06-10,778.0
1992-06-11,777.0
1992-06-12,777.0
1992-06-13,775.0
1992-06-14,774.0
1992-06-15,774.0
1992-06-16,775.0
1992-06-17,776.0
1992-06-18,775.0
1992-06-19,776.0
1992-06-20,774.0
1992-06-21,774.0
1992-06-22,774.0
1992-06-23,772.0
1992-06-24,773.0
1992-06-25,773.0
1992-06-26,773.0
1992-06-27,773.0
1992-06-28,772.0
1992-06-29,771.0
1992-06-30,771.0
1992-07-01,772.0
1992-07-02,773.0
1992-07-03,773.0
1992-07-04,772.0
1992-07-05,772.0
1992-07-06,786.0
1992-07-07,817.0
1992-07-08,824.0
1992-07-09,823.0
1992-07-10,820.0
1992-07-11,819.0
1992-07-12,818.0
1992-07-13,817.0
1992-07-14,818.0
1992-07-15,819.0
1992-07-16,820.0
1992-07-17,818.0
1992-07-18,815.0
1992-07-19,812.0
1992-07-20,810.0
1992-07-21,810.0
1992-07-22,811.0
1992-07-23,819.0
1992-07-24,824.0
1992-07-25,824.0
1992-07-26,821.0
1992-07-27,821.0
1992-07-28,821.0
1992-07-29,820.0
1992-07-30,819.0
1992-07-31,818.0
1992-08-01,817.0
1992-08-02,814.0
1992-08-03,815.0
1992-08-04,814.0
1992-08-05,817.0
1992-08-06,818.0
1992-08-07,819.0
1992-08-08,817.0
1992-08-09,818.0
1992-08-10,815.0
1992-08-11,817.0
1992-08-12,816.0
1992-08-13,817.0
1992-08-14,817.0
1992-08-15,817.0
1992-08-16,818.0
1992-08-17,817.0
1992-08-18,819.0
1992-08-19,819.0
1992-08-20,818.0
1992-08-21,819.0
1992-08-22,821.0
1992-08-23,822.0
1992-08-24,822.0
1992-08-25,821.0
1992-08-26,820.0
1992-08-27,772.0
1992-08-28,736.0
1992-08-29,723.0
1992-08-30,723.0
1992-08-31,725.0
1992-09-01,727.0
1992-09-02,723.0
1992-09-03,722.0
1992-09-04,723.0
1992-09-05,723.0
1992-09-06,722.0
1992-09-07,721.0
1992-09-08,723.0
1992-09-09,720.0
1992-09-10,720.0
1992-09-11,718.0
1992-09-12,714.0
1992-09-13,711.0
1992-09-14,774.0
1992-09-15,815.0
1992-09-16,807.0
1992-09-17,799.0
1992-09-18,741.0
1992-09-19,707.0
1992-09-20,713.0
1992-09-21,716.0
1992-09-22,715.0
1992-09-23,716.0
1992-09-24,716.0
1992-09-25,717.0
1992-09-26,717.0
1992-09-27,716.0
1992-09-28,714.0
1992-09-29,714.0
1992-09-30,657.0
1992-10-01,622.0
1992-10-02,565.0
1992-10-03,537.0
1992-10-04,538.0
1992-10-05,539.0
1992-10-06,539.0
1992-10-07,539.0
1992-10-08,540.0
1992-10-09,539.0
1992-10-10,540.0
1992-10-11,540.0
1992-10-12,540.0
1992-10-13,540.0
1992-10-14,540.0
1992-10-15,540.0
1992-10-16,486.0
1992-10-17,455.0
1992-10-18,453.0
1992-10-19,457.0
1992-10-20,467.0
1992-10-21,467.0
1992-10-22,467.0
1992-10-23,466.0
1992-10-24,466.0
1992-10-25,467.0
1992-10-26,466.0
1992-10-27,466.0
1992-10-28,465.0
1992-10-29,465.0
1992-10-30,466.0
1992-10-31,466.0
1992-11-01,464.0
1992-11-02,177.0
1992-11-03,0.0
1992-11-04,0.0
1992-11-05,0.0
1992-11-06,0.0
1992-11-07,0.0
1992-11-08,0.0
1992-11-09,0.0
1992-11-10,0.0
1992-11-11,0.0
1992-11-12,0.0
1992-11-13,0.0
1992-11-14,0.0
1992-11-15,0.0
1992-11-16,0.0
1992-11-17,0.0
1992-11-18,0.0
1992-11-19,0.0
1992-11-20,0.0
1992-11-21,0.0
1992-11-22,0.0
1992-11-23,50.0
1992-11-24,30.0
1992-11-25,0.0
1992-11-26,0.0
1992-11-27,0.0
1992-11-28,0.0
1992-11-29,0.0
1992-11-30,0.0
1992-12-01,0.0
1992-12-02,0.0
1992-12-03,0.0
1992-12-04,0.0
1992-12-05,0.0
1992-12-06,0.0
1992-12-07,0.0
1992-12-08,0.0
1992-12-09,0.0
1992-12-10,0.0
1992-12-11,0.0
1992-12-12,0.0
1992-12-13,0.0
1992-12-14,0.0
1992-12-15,0.0
1992-12-16,0.0
1992-12-17,0.0
1992-12-18,0.0
1992-12-19,0.0
1992-12-20,0.0
1992-12-21,53.0
1992-12-22,91.0
1992-12-23,0.0
1992-12-24,0.0
1992-12-25,0.0
1992-12-26,0.0
1992-12-27,0.0
1992-12-28,0.0
1992-12-29,0.0
1992-12-30,0.0
1992-12-31,0.0
1993-01-01,0.0
1993-01-02,0.0
1993-01-03,0.0
1993-01-04,0.0
1993-01-05,0.0
1993-01-06,0.0
1993-01-07,0.0
1993-01-08,0.0
1993-01-09,0.0
1993-01-10,0.0
1993-01-11,71.0
1993-01-12,24.0
1993-01-13,0.0
1993-01-14,0.0
1993-01-15,0.0
1993-01-16,0.0
1993-01-17,0.0
1993-01-18,0.0
1993-01-19,0.0
1993-01-20,0.0
1993-01-21,0.0
1993-01-22,0.0
1993-01-23,0.0
1993-01-24,0.0
1993-01-25,0.0
1993-01-26,0.0
1993-01-27,0.0
1993-01-28,0.0
1993-01-29,0.0
1993-01-30,0.0
1993-01-31,0.0
1993-02-01,0.0
1993-02-02,0.0
1993-02-03,0.0
1993-02-04,0.0
1993-02-05,0.0
1993-02-06,0.0
1993-02-07,0.0
1993-02-08,0.0
1993-02-09,0.0
1993-02-10,0.0
1993-02-11,0.0
1993-02-12,0.0
1993-02-13,0.0
1993-02-14,0.0
1993-02-15,0.0
1993-02-16,0.0
1993-02-17,66.0
1993-02-18,39.0
1993-02-19,0.0
1993-02-20,0.0
1993-02-21,0.0
1993-02-22,0.0
1993-02-23,0.0
1993-02-24,0.0
1993-02-25,0.0
1993-02-26,0.0
1993-02-27,0.0
1993-02-28,0.0
1993-03-01,0.0
1993-03-02,0.0
1993-03-03,0.0
1993-03-04,0.0
1993-03-05,0.0
1993-03-06,0.0
1993-03-07,0.0
1993-03-08,0.0
1993-03-09,70.0
1993-03-10,44.0
1993-03-11,0.0
1993-03-12,0.0
1993-03-13,0.0
1993-03-14,0.0
1993-03-15,0.0
1993-03-16,0.0
1993-03-17,0.0
1993-03-18,0.0
1993-03-19,0.0
1993-03-20,0.0
1993-03-21,0.0
1993-03-22,98.0
1993-03-23,218.0
1993-03-24,314.0
1993-03-25,311.0
1993-03-26,311.0
1993-03-27,311.0
1993-03-28,311.0
1993-03-29,311.0
1993-03-30,311.0
1993-03-31,311.0
1993-04-01,311.0
1993-04-02,311.0
1993-04-03,311.0
1993-04-04,311.0
1993-04-05,377.0
1993-04-06,405.0
1993-04-07,404.0
1993-04-08,404.0
1993-04-09,404.0
1993-04-10,404.0
1993-04-11,405.0
1993-04-12,404.0
1993-04-13,405.0
1993-04-14,406.0
1993-04-15,406.0
1993-04-16,459.0
1993-04-17,491.0
1993-04-18,494.0
1993-04-19,494.0
1993-04-20,495.0
1993-04-21,497.0
1993-04-22,498.0
1993-04-23,498.0
1993-04-24,500.0
1993-04-25,504.0
1993-04-26,507.0
1993-04-27,514.0
1993-04-28,508.0
1993-04-29,498.0
1993-04-30,494.0
1993-05-01,494.0
1993-05-02,491.0
1993-05-03,526.0
1993-05-04,580.0
1993-05-05,590.0
1993-05-06,586.0
1993-05-07,580.0
1993-05-08,580.0
1993-05-09,580.0
1993-05-10,577.0
1993-05-11,574.0
1993-05-12,572.0
1993-05-13,572.0
1993-05-14,566.0
1993-05-15,563.0
1993-05-16,563.0
1993-05-17,514.0
1993-05-18,428.0
1993-05-19,428.0
1993-05-20,428.0
1993-05-21,429.0
1993-05-22,425.0
1993-05-23,416.0
1993-05-24,392.0
1993-05-25,389.0
1993-05-26,445.0
1993-05-27,474.0
1993-05-28,474.0
1993-05-29,473.0
1993-05-30,474.0
1993-05-31,475.0
1993-06-01,476.0
1993-06-02,481.0
1993-06-03,485.0
1993-06-04,484.0
1993-06-05,482.0
1993-06-06,483.0
1993-06-07,537.0
1993-06-08,555.0
1993-06-09,554.0
1993-06-10,586.0
1993-06-11,607.0
1993-06-12,610.0
1993-06-13,608.0
1993-06-14,609.0
1993-06-15,612.0
1993-06-16,607.0
1993-06-17,604.0
1993-06-18,606.0
1993-06-19,615.0
1993-06-20,618.0
1993-06-21,617.0
1993-06-22,617.0
1993-06-23,620.0
1993-06-24,620.0
1993-06-25,609.0
1993-06-26,609.0
1993-06-27,615.0
1993-06-28,617.0
1993-06-29,616.0
1993-06-30,618.0
1993-07-01,621.0
1993-07-02,687.0
1993-07-03,717.0
1993-07-04,718.0
1993-07-05,723.0
1993-07-06,731.0
1993-07-07,764.0
1993-07-08,812.0
1993-07-09,827.0
1993-07-10,825.0
1993-07-11,827.0
1993-07-12,841.0
1993-07-13,839.0
1993-07-14,836.0
1993-07-15,835.0
1993-07-16,840.0
1993-07-17,845.0
1993-07-18,843.0
1993-07-19,840.0
1993-07-20,841.0
1993-07-21,841.0
1993-07-22,843.0
1993-07-23,845.0
1993-07-24,844.0
1993-07-25,844.0
1993-07-26,845.0
1993-07-27,845.0
1993-07-28,845.0
1993-07-29,847.0
1993-07-30,847.0
1993-07-31,846.0
1993-08-01,844.0
1993-08-02,844.0
1993-08-03,844.0
1993-08-04,842.0
1993-08-05,842.0
1993-08-06,843.0
1993-08-07,843.0
1993-08-08,843.0
1993-08-09,840.0
1993-08-10,836.0
1993-08-11,833.0
1993-08-12,833.0
1993-08-13,835.0
1993-08-14,833.0
1993-08-15,831.0
1993-08-16,831.0
1993-08-17,830.0
1993-08-18,829.0
1993-08-19,829.0
1993-08-20,828.0
1993-08-21,823.0
1993-08-22,833.0
1993-08-23,833.0
1993-08-24,831.0
1993-08-25,835.0
1993-08-26,839.0
1993-08-27,820.0
1993-08-28,804.0
1993-08-29,806.0
1993-08-30,773.0
1993-08-31,779.0
1993-09-01,801.0
1993-09-02,805.0
1993-09-03,808.0
1993-09-04,809.0
1993-09-05,811.0
1993-09-06,811.0
1993-09-07,810.0
1993-09-08,808.0
1993-09-09,807.0
1993-09-10,812.0
1993-09-11,813.0
1993-09-12,812.0
1993-09-13,815.0
1993-09-14,681.0
1993-09-15,588.0
1993-09-16,588.0
1993-09-17,592.0
1993-09-18,595.0
1993-09-19,601.0
1993-09-20,603.0
1993-09-21,603.0
1993-09-22,605.0
1993-09-23,606.0
1993-09-24,665.0
1993-09-25,762.0
1993-09-26,792.0
1993-09-27,771.0
1993-09-28,770.0
1993-09-29,771.0
1993-09-30,766.0
1993-10-01,766.0
1993-10-02,766.0
1993-10-03,766.0
1993-10-04,766.0
1993-10-05,766.0
1993-10-06,767.0
1993-10-07,767.0
1993-10-08,767.0
1993-10-09,767.0
1993-10-10,766.0
1993-10-11,766.0
1993-10-12,766.0
1993-10-13,765.0
1993-10-14,763.0
1993-10-15,762.0
1993-10-16,521.0
1993-10-17,341.0
1993-10-18,341.0
1993-10-19,342.0
1993-10-20,342.0
1993-10-21,342.0
1993-10-22,346.0
1993-10-23,352.0
1993-10-24,355.0
1993-10-25,358.0
1993-10-26,358.0
1993-10-27,366.0
1993-10-28,379.0
1993-10-29,379.0
1993-10-30,379.0
1993-10-31,380.0
1993-11-01,379.0
1993-11-02,378.0
1993-11-03,379.0
1993-11-04,378.0
1993-11-05,378.0
1993-11-06,381.0
1993-11-07,324.0
1993-11-08,8.7
1993-11-09,0.0
1993-11-10,0.0
1993-11-11,0.0
1993-11-12,0.0
1993-11-13,0.0
1993-11-14,0.0
1993-11-15,0.0
1993-11-16,0.0
1993-11-17,0.0
1993-11-18,0.0
1993-11-19,0.0
1993-11-20,0.0
1993-11-21,0.0
1993-11-22,0.0
1993-11-23,0.0
1993-11-24,0.0
1993-11-25,0.0
1993-11-26,0.0
1993-11-27,0.0
1993-11-28,0.0
1993-11-29,0.0
1993-11-30,4.5
1993-12-01,12.0
1993-12-02,8.0
1993-12-03,0.0
1993-12-04,0.0
1993-12-05,0.0
1993-12-06,18.0
1993-12-07,6.0
1993-12-08,0.0
1993-12-09,0.0
1993-12-10,0.0
1993-12-11,0.0
1993-12-12,0.0
1993-12-13,0.0
1993-12-14,0.0
1993-12-15,0.0
1993-12-16,0.0
1993-12-17,0.0
1993-12-18,0.0
1993-12-19,0.0
1993-12-20,40.0
1993-12-21,24.0
1993-12-22,0.0
1993-12-23,0.0
1993-12-24,0.0
1993-12-25,0.0
1993-12-26,0.0
1993-12-27,0.0
1993-12-28,0.0
1993-12-29,0.0
1993-12-30,0.0
1993-12-31,0.0
1994-01-01,0.0
1994-01-02,0.0
1994-01-03,0.0
1994-01-04,0.0
1994-01-05,0.0
1994-01-06,0.0
1994-01-07,0.0
1994-01-08,0.0
1994-01-09,0.0
1994-01-10,43.0
1994-01-11,37.0
1994-01-12,0.0
1994-01-13,0.0
1994-01-14,0.0
1994-01-15,0.0
1994-01-16,0.0
1994-01-17,0.0
1994-01-18,0.0
1994-01-19,0.0
1994-01-20,0.0
1994-01-21,0.0
1994-01-22,0.0
1994-01-23,0.0
1994-01-24,0.0
1994-01-25,0.0
1994-01-26,0.0
1994-01-27,0.0
1994-01-28,0.0
1994-01-29,0.0
1994-01-30,0.0
1994-01-31,60.0
1994-02-01,78.0
1994-02-02,0.0
1994-02-03,0.0
1994-02-04,0.0
1994-02-05,0.0
1994-02-06,0.0
1994-02-07,0.0
1994-02-08,0.0
1994-02-09,0.0
1994-02-10,0.0
1994-02-11,0.0
1994-02-12,0.0
1994-02-13,0.0
1994-02-14,0.0
1994-02-15,41.0
1994-02-16,82.0
1994-02-17,0.0
1994-02-18,0.0
1994-02-19,0.0
1994-02-20,0.0
1994-02-21,0.0
1994-02-22,0.0
1994-02-23,0.0
1994-02-24,0.0
1994-02-25,0.0
1994-02-26,0.0
1994-02-27,70.0
1994-02-28,24.0
1994-03-01,0.0
1994-03-02,0.0
1994-03-03,0.0
1994-03-04,0.0
1994-03-05,0.0
1994-03-06,0.0
1994-03-07,0.0
1994-03-08,0.0
1994-03-09,0.0
1994-03-10,0.0
1994-03-11,0.0
1994-03-12,0.0
1994-03-13,0.0
1994-03-14,0.0
1994-03-15,0.0
1994-03-16,0.0
1994-03-17,0.0
1994-03-18,0.0
1994-03-19,0.0
1994-03-20,7.3
1994-03-21,188.0
1994-03-22,323.0
1994-03-23,365.0
1994-03-24,349.0
1994-03-25,350.0
1994-03-26,350.0
1994-03-27,350.0
1994-03-28,350.0
1994-03-29,350.0
1994-03-30,348.0
1994-03-31,404.0
1994-04-01,561.0
1994-04-02,636.0
1994-04-03,634.0
1994-04-04,634.0
1994-04-05,635.0
1994-04-06,636.0
1994-04-07,635.0
1994-04-08,636.0
1994-04-09,637.0
1994-04-10,638.0
1994-04-11,638.0
1994-04-12,639.0
1994-04-13,640.0
1994-04-14,713.0
1994-04-15,761.0
1994-04-16,771.0
1994-04-17,773.0
1994-04-18,775.0
1994-04-19,740.0
1994-04-20,733.0
1994-04-21,759.0
1994-04-22,760.0
1994-04-23,760.0
1994-04-24,760.0
1994-04-25,759.0
1994-04-26,782.0
1994-04-27,815.0
1994-04-28,819.0
1994-04-29,815.0
1994-04-30,813.0
1994-05-01,811.0
1994-05-02,810.0
1994-05-03,808.0
1994-05-04,813.0
1994-05-05,815.0
1994-05-06,823.0
1994-05-07,828.0
1994-05-08,831.0
1994-05-09,821.0
1994-05-10,815.0
1994-05-11,815.0
1994-05-12,816.0
1994-05-13,816.0
1994-05-14,817.0
1994-05-15,817.0
1994-05-16,817.0
1994-05-17,825.0
1994-05-18,826.0
1994-05-19,820.0
1994-05-20,823.0
1994-05-21,828.0
1994-05-22,835.0
1994-05-23,823.0
1994-05-24,814.0
1994-05-25,807.0
1994-05-26,795.0
1994-05-27,804.0
1994-05-28,809.0
1994-05-29,801.0
1994-05-30,800.0
1994-05-31,803.0
1994-06-01,804.0
1994-06-02,804.0
1994-06-03,808.0
1994-06-04,811.0
1994-06-05,813.0
1994-06-06,814.0
1994-06-07,814.0
1994-06-08,812.0
1994-06-09,812.0
1994-06-10,815.0
1994-06-11,829.0
1994-06-12,831.0
1994-06-13,848.0
1994-06-14,861.0
1994-06-15,868.0
1994-06-16,871.0
1994-06-17,868.0
1994-06-18,864.0
1994-06-19,862.0
1994-06-20,861.0
1994-06-21,864.0
1994-06-22,863.0
1994-06-23,860.0
1994-06-24,859.0
1994-06-25,858.0
1994-06-26,858.0
1994-06-27,858.0
1994-06-28,857.0
1994-06-29,855.0
1994-06-30,854.0
1994-07-01,850.0
1994-07-02,849.0
1994-07-03,847.0
1994-07-04,848.0
1994-07-05,847.0
1994-07-06,847.0
1994-07-07,846.0
1994-07-08,844.0
1994-07-09,842.0
1994-07-10,840.0
1994-07-11,838.0
1994-07-12,835.0
1994-07-13,835.0
1994-07-14,833.0
1994-07-15,832.0
1994-07-16,833.0
1994-07-17,833.0
1994-07-18,830.0
1994-07-19,830.0
1994-07-20,829.0
1994-07-21,830.0
1994-07-22,831.0
1994-07-23,829.0
1994-07-24,829.0
1994-07-25,829.0
1994-07-26,829.0
1994-07-27,828.0
1994-07-28,827.0
1994-07-29,826.0
1994-07-30,825.0
1994-07-31,824.0
1994-08-01,823.0
1994-08-02,823.0
1994-08-03,822.0
1994-08-04,820.0
1994-08-05,819.0
1994-08-06,821.0
1994-08-07,819.0
1994-08-08,819.0
1994-08-09,818.0
1994-08-10,816.0
1994-08-11,814.0
1994-08-12,813.0
1994-08-13,812.0
1994-08-14,810.0
1994-08-15,809.0
1994-08-16,808.0
1994-08-17,807.0
1994-08-18,807.0
1994-08-19,808.0
1994-08-20,808.0
1994-08-21,808.0
1994-08-22,807.0
1994-08-23,805.0
1994-08-24,804.0
1994-08-25,802.0
1994-08-26,801.0
1994-08-27,800.0
1994-08-28,801.0
1994-08-29,800.0
1994-08-30,801.0
1994-08-31,802.0
1994-09-01,804.0
1994-09-02,781.0
1994-09-03,770.0
1994-09-04,770.0
1994-09-05,781.0
1994-09-06,782.0
1994-09-07,755.0
1994-09-08,721.0
1994-09-09,687.0
1994-09-10,689.0
1994-09-11,692.0
1994-09-12,694.0
1994-09-13,696.0
1994-09-14,697.0
1994-09-15,663.0
1994-09-16,663.0
1994-09-17,665.0
1994-09-18,647.0
1994-09-19,574.0
1994-09-20,575.0
1994-09-21,576.0
1994-09-22,577.0
1994-09-23,577.0
1994-09-24,579.0
1994-09-25,579.0
1994-09-26,581.0
1994-09-27,582.0
1994-09-28,583.0
1994-09-29,583.0
1994-09-30,585.0
1994-10-01,584.0
1994-10-02,585.0
1994-10-03,585.0
1994-10-04,438.0
1994-10-05,117.0
1994-10-06,381.0
1994-10-07,454.0
1994-10-08,431.0
1994-10-09,431.0
1994-10-10,432.0
1994-10-11,426.0
1994-10-12,420.0
1994-10-13,420.0
1994-10-14,416.0